This is the latest recevied weather packets stored in our database for station/object CE3TDM-12. If no packets are shown the sender has not sent any weather packets the latest 10 day(s).
| Time | Temp. | Humidity | Pressure | Rain* | Wind** | Luminosity | Snow |
|---|---|---|---|---|---|---|---|
| 1777825610 | 21.67° C | 34% | 779.6 hPa | - | - | - | - |
| 1777825307 | 21.67° C | 34% | 779.7 hPa | - | - | - | - |
| 1777825006 | 22.78° C | 33% | 779.5 hPa | - | - | - | - |
| 1777824706 | 23.33° C | 33% | 779.3 hPa | - | - | - | - |
| 1777824401 | 23.89° C | 33% | 779.5 hPa | - | - | - | - |
| 1777821298 | 25° C | 31% | 780.2 hPa | - | - | - | - |
| 1777820997 | 25.56° C | 31% | 780.1 hPa | - | - | - | - |
| 1777820697 | 25° C | 32% | 780.1 hPa | - | - | - | - |
| 1777820396 | 25° C | 32% | 780.1 hPa | - | - | - | - |
| 1777820095 | 25° C | 32% | 780.1 hPa | - | - | - | - |
| 1777819794 | 25° C | 31% | 780.1 hPa | - | - | - | - |
| 1777819493 | 25.56° C | 32% | 780 hPa | - | - | - | - |
| 1777819193 | 25.56° C | 32% | 780 hPa | - | - | - | - |
| 1777818886 | 26.11° C | 31% | 780 hPa | - | - | - | - |
| 1777818586 | 26.11° C | 31% | 780.1 hPa | - | - | - | - |
| 1777818269 | 26.67° C | 31% | 780.2 hPa | - | - | - | - |
| 1777817968 | 26.67° C | 30% | 780.1 hPa | - | - | - | - |
| 1777815505 | 23.89° C | 31% | 780.2 hPa | - | - | - | - |
| 1777815200 | 23.33° C | 31% | 780.2 hPa | - | - | - | - |
| 1777814897 | 21.67° C | 32% | 780.2 hPa | - | - | - | - |
| 1777814592 | 21.11° C | 32% | 780.2 hPa | - | - | - | - |
| 1777814292 | 20° C | 33% | 780 hPa | - | - | - | - |
| 1777813991 | 20° C | 32% | 779.9 hPa | - | - | - | - |
| 1777813690 | 20° C | 32% | 779.9 hPa | - | - | - | - |
| 1777813390 | 20° C | 32% | 779.9 hPa | - | - | - | - |
* Rain since midnight (hover to see other rain measurements)
** Current wind speed in m/s (hover to see current wind gust speed)